Hourly Data Report for September 20, 2010

IQALUIT CLIMATE
NUNAVUT

63°44'50.000" N
68°32'40.000" W
33.50 m
2402592
71321
XFB

Download Data

Hourly Data (September 2010)
Hourly Data Report for September 20, 2010
TIME
LST
Temp Definition
°C
Dew Point Definition
°C
Rel Hum Definition
%
Precip. Amount Definition
mm

Wind Dir Definition
10's deg

Wind Spd Definition
km/h
Visibility Definition
km
Stn Press Definition
kPa
Hmdx Definition


Wind Chill Definition


Weather Definition


00:00 2.8 2.8 100   14 7   100.08     LegendNANA
01:00 2.9 2.9 100   12 6   100.07     LegendNANA
02:00 2.9 2.9 100   14 6   100.06     LegendNANA
03:00 2.8 2.8 100   13 4   100.05     LegendNANA
04:00 2.7 2.7 100     0   100.01     LegendNANA
05:00 2.5 2.5 100   31 2   100.00     LegendNANA
06:00 2.7 2.7 100   10 2   100.00     LegendNANA
07:00 2.8 2.8 100   15 4   99.98     LegendNANA
08:00 3.0 3.0 100   16 2   99.97     LegendNANA
09:00 3.3 3.3 100   7 2   99.97     LegendNANA
10:00 3.5 3.5 100   14 6   99.97     LegendNANA
11:00 3.4 3.4 100   16 6   99.96     LegendNANA
12:00 3.5 3.5 100   14 6   99.94     LegendNANA
13:00 3.9 3.9 100   16 7   99.93     LegendNANA
14:00 3.1 LegendMM LegendMM   16 6   99.94     LegendNANA
15:00 3.5 3.5 100   10 2   99.93     LegendNANA
16:00 4.4 4.4 100     0   99.95     LegendNANA
17:00 4.3 4.3 100   28 6   99.96     LegendNANA
18:00 2.4 2.4 100   32 9   99.97     LegendNANA
19:00 2.2 LegendMM LegendMM   32 4   99.99     LegendNANA
20:00 2.0 LegendMM LegendMM   16 6   100.01     LegendNANA
21:00 2.5 LegendMM LegendMM   14 4   100.02     LegendNANA
22:00 1.8 LegendMM LegendMM   33 2   100.01     LegendNANA
23:00 2.2 LegendMM LegendMM   31 9   100.02     LegendNANA

Notes on Data Quality.

Legend

  • E = Estimated
  • M = Missing
  • NA = Not Available*
  • [empty] = Indicates an unobserved value
Date modified: